Location: Litvinovka
(48.6667°N, 34.3500°E)
Time: 15:51:07
(UTC+00:00)

Lacrosse 4 Rocket - Pass Details

Date: 18 September 2020
Orbit: 543 x 615 km, 68.0° (Epoch: 21 October)

Event Time Altitude Azimuth Distance (km) Brightness Sun altitude
Rises 17:43:52 0° 336° (NNW) 2,717 5.7 -19.2°
Reaches altitude 10° 17:47:37 10° 12° (NNE) 1,822 4.1 -19.8°
Maximum altitude 17:48:55 11° 31° (NNE) 1,742 3.8 -20.0°
Enters shadow 17:49:34 11° 40° (NE) 1,763 3.8 -20.0°
